This demonstration page uses our WeatherBlox Daily Observations layout. Learn more.

Left ArrowRight Arrow

34.16533, -84.80231

Hourly Observations for November 25, 2020

Temp ( °F °C ) Dew Point ( °F °C ) Humidity (%) Winds ( mph kmh ) Pressure ( in mb ) Visibility ( mi km ) Precip ( " mm )
12:53 am 00:53 Clear 51 10.6 35 1.7 54 54 E 8 13 30.21 1023 10 16 0.00 0.00
1:36 am 01:36 Mostly Cloudy 51 10.6 37 2.8 59 59 ESE 9 15 30.23 1024 10 16 0.00 0.00
1:53 am 01:53 Cloudy 52 11.1 38 3.3 59 59 VRB 7 11 30.20 1023 10 16 0.00 0.00
2:53 am 02:53 Cloudy 53 11.7 41 5 64 64 VRB 3 6 30.22 1023 10 16 0.00 0.00
3:53 am 03:53 Cloudy 53 11.7 44 6.7 72 72 VRB 6 9 30.21 1023 10 16 0.00 0.00
4:04 am 04:04 Cloudy 53 11.7 44 6.7 72 72 ESE 7 11 30.23 1024 10 16 0.00 0.00
4:39 am 04:39 Cloudy 53 11.7 45 7.2 74 74 E 7 11 30.24 1024 10 16 0.00 0.00
4:53 am 04:53 Cloudy 53 11.7 45 7.2 74 74 ESE 7 11 30.21 1023 10 16 0.00 0.00
5:53 am 05:53 Cloudy 53 11.7 45 7.2 74 74 VRB 6 9 30.20 1023 10 16 0.00 0.00
6:53 am 06:53 Cloudy 53 11.7 45 7.2 74 74 E 8 13 30.20 1023 10 16 0.00 0.00
7:40 am 07:40 Partly Cloudy 53 11.7 45 7.2 74 74 ESE 8 13 30.21 1023 10 16 0.00 0.00
7:53 am 07:53 Sunny 53 11.7 45 7.2 74 74 VRB 7 11 30.19 1023 10 16 0.00 0.00
8:19 am 08:19 Mostly Cloudy 54 12.2 46 7.8 75 75 VRB 6 9 30.22 1023 10 16 0.00 0.00
8:53 am 08:53 Mostly Cloudy 55 12.8 48 8.9 77 77 VRB 7 11 30.19 1022 10 16 0.00 0.00
9:06 am 09:06 Partly Cloudy 56 13.3 48 8.9 75 75 SE 9 15 30.21 1023 10 16 0.00 0.00
9:53 am 09:53 Cloudy 61 16.1 51 10.6 70 70 undefined N/A 30.17 1022 10 16 0.00 0.00
10:53 am 10:53 Mostly Cloudy 66 18.9 52 11.1 61 61 SSE 10 17 30.15 1021 10 16 0.00 0.00
11:53 am 11:53 Cloudy 69 20.6 54 12.2 59 59 SE 10 17 30.12 1020 10 16 0.00 0.00
12:53 pm 12:53 Cloudy 71 21.7 55 12.8 57 57 S 12 19 30.07 1018 10 16 0.00 0.00
1:53 pm 13:53 Cloudy 71 21.7 55 12.8 57 57 S 10 17 30.04 1017 10 16 0.00 0.00
2:53 pm 14:53 Cloudy 68 20 57 13.9 68 68 VRB 5 7 30.04 1017 10 16 0.00 0.00
3:16 pm 15:16 Cloudy with Heavy Rain 65 18.3 58 14.4 78 78 VRB 5 7 30.09 1019 2 3 0.07 1.78
3:32 pm 15:32 Cloudy with Rain 62 16.7 59 15 90 90 VRB 3 6 30.09 1019 2 3 0.21 5.33
3:36 pm 15:36 Cloudy with Light Rain 62 16.7 59 15 90 90 VRB 3 6 30.09 1019 3 5 0.21 5.33
3:43 pm 15:43 Cloudy with Rain 62 16.7 59 15 90 90 VRB 3 6 30.10 1019 3 5 0.23 5.84
3:46 pm 15:46 Cloudy with Rain 62 16.7 59 15 90 90 Calm 30.10 1019 2 3 0.26 6.60
3:53 pm 15:53 Cloudy with Heavy Rain 62 16.7 59 15 90 90 SSW 5 7 30.09 1019 1 2 0.34 8.64
4:00 pm 16:00 Cloudy with Rain 62 16.7 59 15 90 90 SSE 5 7 30.08 1019 3 5 0.01 0.25
4:53 pm 16:53 Cloudy with Light Rain 62 16.7 59 15 90 90 SSE 12 19 30.04 1017 10 16 0.06 1.52
7:53 pm 19:53 Partly Cloudy 62 16.7 58 14.4 86 86 SE 6 9 30.05 1018 10 16 0.00 0.00
8:14 pm 20:14 Mostly Cloudy 62 16.7 58 14.4 86 86 Calm 30.06 1018 10 16 0.00 0.00
8:53 pm 20:53 Cloudy 61 16.1 59 15 93 93 Calm 30.06 1018 10 16 0.00 0.00
9:09 pm 21:09 Cloudy 61 16.1 58 14.4 90 90 SE 6 9 30.08 1019 10 16 0.00 0.00
9:21 pm 21:21 Cloudy 62 16.7 58 14.4 86 86 VRB 3 6 30.08 1019 10 16 0.00 0.00
9:53 pm 21:53 Cloudy 62 16.7 58 14.4 86 86 S 6 9 30.07 1018 10 16 0.00 0.00
10:53 pm 22:53 Cloudy 63 17.2 59 15 87 87 SSE 7 11 30.04 1017 10 16 0.00 0.00
11:34 pm 23:34 Cloudy 63 17.2 59 15 87 87 SSE 8 13 30.06 1018 10 16 0.00 0.00
11:53 pm 23:53 Cloudy 63 17.2 60 15.6 90 90 S 8 13 30.04 1017 10 16 0.00 0.00

Powered by AerisWeather